Flight Track Log - Related Links

Times and Time Zones

All times are in EDT time to prevent confusion due to time zone crossing. See the JBU285 flight status page for this flight to view local times or setup timezone preferences in your user account.

Time Position Orientation Groundspeed Altitude Reporting Facility
EDT Latitude Longitude Course Direction KTS MPH feet Rate Location/Type
Tue 09:36:16 PM 36.0769 -115.1119 228° Southwest 166 191 3,400  Level Los Angeles Center
Tue 09:37:54 PM 36.0761 -114.9900 90° East 259 298 6,300 2,178 Climbing Los Angeles Center
Tue 09:38:42 PM 36.0378 -114.9333 130° Southeast 296 341 8,700 2,833 Climbing Los Angeles Center
Tue 09:39:00 PM 35.8179 -115.3481 161° South  Level FlightAware Approximate
Tue 09:39:06 PM 36.0072 -114.9358 184° South 291 335 9,700  Level Los Angeles Center
Tue 09:39:43 PM 35.9672 -114.9756 219° Southwest 293 337 11,800 3,049 Climbing Los Angeles Center
Tue 09:40:00 PM 35.7198 -115.3061 161° South  Level FlightAware Approximate
Tue 09:40:07 PM 35.9447 -115.0006 222° Southwest 296 341 12,800  Level Los Angeles Center
Tue 09:41:00 PM 35.6416 -115.3282 228° Southwest  Level FlightAware Approximate
Tue 09:41:09 PM 35.8806 -115.0706 221° Southwest 303 349 15,600  Level Los Angeles Center
Tue 09:42:23 PM 35.8114 -115.1483 222° Southwest 327 376 17,000 1,333 Climbing Los Angeles Center
Tue 09:43:24 PM 35.7119 -115.2567 222° Southwest 380 437 18,600 1,756 Climbing Los Angeles Center
Tue 09:44:26 PM 35.6278 -115.3544 223° Southwest 397 457 20,600 1,935 Climbing Los Angeles Center
Tue 09:45:28 PM 35.5506 -115.4653 229° Southwest 412 474 22,600 1,659 Climbing Los Angeles Center
Tue 09:46:29 PM 35.4714 -115.5739 228° Southwest 423 487 24,000 683 Climbing Los Angeles Center
Tue 09:47:31 PM 35.3931 -115.6789 228° Southwest 423 487 24,000  Level Los Angeles Center
Tue 09:48:32 PM 35.2961 -115.8061 227° Southwest 424 488 24,000  Level Los Angeles Center
Tue 09:49:34 PM 35.2161 -115.9136 228° Southwest 426 490 24,000  Level Los Angeles Center
Tue 09:50:35 PM 35.1358 -116.0192 227° Southwest 424 488 24,000  Level Los Angeles Center
Tue 09:51:37 PM 35.0544 -116.1233 226° Southwest 424 488 24,000  Level Los Angeles Center
Tue 09:52:38 PM 34.9750 -116.2286 227° Southwest 424 488 24,000  Level Los Angeles Center
Tue 09:53:40 PM 34.8947 -116.3350 227° Southwest 425 489 24,000  Level Los Angeles Center
Tue 09:54:42 PM 34.8139 -116.4394 227° Southwest 424 488 24,000 -244 Level Los Angeles Center
Tue 09:55:43 PM 34.7328 -116.5422 226° Southwest 422 486 23,500 -878 Descending Los Angeles Center
Tue 09:56:45 PM 34.6417 -116.6528 225° Southwest 382 440 22,200 -1,415 Descending Los Angeles Center
Tue 09:57:46 PM 34.5708 -116.7389 225° Southwest 363 418 20,600 -1,610 Descending Los Angeles Center
Tue 09:58:48 PM 34.5017 -116.8233 225° Southwest 353 406 18,900 -1,694 Descending Los Angeles Center
Tue 09:59:50 PM 34.4281 -116.9139 225° Southwest 374 430 17,100 -1,887 Descending Los Angeles Center
Tue 10:00:52 PM 34.3464 -117.0128 225° Southwest 408 470 15,000 -2,032 Descending Los Angeles Center
Tue 10:01:54 PM 34.2625 -117.1022 221° Southwest 407 468 12,900 -1,171 Descending Los Angeles Center
Tue 10:02:55 PM 34.1658 -117.1136 186° South 350 403 12,600 -660 Descending Los Angeles Center
Tue 10:03:34 PM 34.1000 -117.1167 182° South 305 351 11,800 -970 Descending Southern California TRACON
Tue 10:04:34 PM 34.0167 -117.1333 189° South 299 344 11,000 -650 Descending Southern California TRACON
Tue 10:05:34 PM 33.9333 -117.1667 198° South 293 337 10,500 -1,000 Descending Southern California TRACON
Tue 10:06:34 PM 33.8667 -117.2167 212° Southwest 290 334 9,000 -1,364 Descending Southern California TRACON
Tue 10:07:02 PM 33.8650 -117.2461 266° West 295 339 8,500 -674 Descending Los Angeles Center
Tue 10:08:03 PM 33.8419 -117.3378 253° West 288 331 8,000 -244 Descending Los Angeles Center
Tue 10:09:05 PM 33.8186 -117.4314 253° West 292 336 8,000  Level Los Angeles Center
Tue 10:10:07 PM 33.7964 -117.5258 254° West 293 337 8,000 -49 Level Los Angeles Center
Tue 10:11:08 PM 33.7697 -117.6394 254° West 294 338 7,900 -574 Descending Los Angeles Center
Tue 10:11:41 PM 33.7500 -117.7000 249° West 290 334 7,100 -2,000 Descending Southern California TRACON
Tue 10:12:41 PM 33.7333 -117.7833 256° West 275 316 4,800 -1,785 Descending Southern California TRACON
Tue 10:13:42 PM 33.7000 -117.8667 244° Southwest 243 280 3,500 -893 Descending Southern California TRACON
Tue 10:14:42 PM 33.6833 -117.9333 253° West 225 259 3,000 -632 Descending Southern California TRACON
Tue 10:15:36 PM 33.7000 -118.0000 287° West 229 264 2,300 -470 Descending Southern California TRACON
Tue 10:16:37 PM 33.7333 -118.0500 309° West 204 235 2,100 -545 Descending Southern California TRACON
Tue 10:17:37 PM 33.7667 -118.1000 309° West 149 171 1,200 -850 Descending Southern California TRACON
Tue 10:18:37 PM 33.8000 -118.1333 320° Northwest 128 147 400 -800 Descending Southern California TRACON
Tue 10:21:00 PM 33.8167 -118.1500 292° West  Level FlightAware Approximate

Login

Don't have an account? Register now (free) for customized features, flight alerts, and more!